• In Hungary
  • List of Countries
  • For 7 days
  • Water Temperature
  • Satellite Maps
  • Weather Map
  • News
  • Weather Widgets
  • user-avatar
    Login

    Hourly Weather Witoszewo

    Today, 12 December, Tuesday

    Time Temperature Precipitation Wind Pressure Humidity
    00:00 +2°C° 0 mm 6 mps 733 mmHg 91%
    01:00 +3°C° 0 mm 7 mps 733 mmHg 91%
    02:00 +3°C° 0 mm 6 mps 732 mmHg 90%
    03:00 +3°C° 0 mm 6 mps 732 mmHg 90%
    04:00 +4°C° 0 mm 6 mps 732 mmHg 90%
    05:00 +4°C° 0.1 mm 6 mps 732 mmHg 90%
    06:00 +4°C° 0.1 mm 6 mps 733 mmHg 91%
    07:00 +5°C° 0.1 mm 6 mps 733 mmHg 91%
    08:00 +4°C° 0 mm 6 mps 733 mmHg 90%
    09:00 +4°C° 0 mm 7 mps 734 mmHg 89%
    10:00 +4°C° 0 mm 7 mps 735 mmHg 88%
    11:00 +4°C° 0 mm 8 mps 735 mmHg 82%
    12:00 +5°C° 0 mm 8 mps 736 mmHg 76%
    13:00 +5°C° 0 mm 9 mps 737 mmHg 71%
    14:00 +3°C° 0 mm 9 mps 737 mmHg 70%
    15:00 +3°C° 0 mm 9 mps 738 mmHg 70%
    16:00 +2°C° 0 mm 10 mps 739 mmHg 69%
    17:00 +2°C° 0 mm 10 mps 739 mmHg 70%
    18:00 +1°C° 0 mm 10 mps 740 mmHg 70%
    19:00 +1°C° 0 mm 10 mps 741 mmHg 71%
    20:00 +1°C° 0 mm 10 mps 742 mmHg 71%
    21:00 0°C° 0 mm 10 mps 743 mmHg 72%
    22:00 0°C° 0 mm 10 mps 743 mmHg 72%
    23:00 0°C° 0.1 mm 9 mps 744 mmHg 72%

    Tomorrow, 13 December, Wednesday

    Time Temperature Precipitation Wind Pressure Humidity
    00:00 0°C° 0.1 mm 8 mps 745 mmHg 73%
    01:00 -1°C° 0.1 mm 7 mps 746 mmHg 74%
    02:00 -1°C° 0 mm 7 mps 747 mmHg 75%
    03:00 -1°C° 0 mm 6 mps 748 mmHg 77%
    04:00 -2°C° 0 mm 6 mps 748 mmHg 79%
    05:00 -2°C° 0 mm 6 mps 749 mmHg 81%
    06:00 -2°C° 0 mm 6 mps 749 mmHg 83%
    07:00 -2°C° 0 mm 5 mps 750 mmHg 85%
    08:00 -2°C° 0 mm 6 mps 750 mmHg 85%
    09:00 -2°C° 0 mm 6 mps 750 mmHg 84%
    10:00 -2°C° 0 mm 6 mps 750 mmHg 83%
    11:00 -2°C° 0 mm 6 mps 750 mmHg 82%
    12:00 -1°C° 0 mm 6 mps 750 mmHg 80%
    13:00 -1°C° 0 mm 6 mps 749 mmHg 78%
    14:00 -2°C° 0 mm 6 mps 749 mmHg 79%
    15:00 -2°C° 0 mm 6 mps 748 mmHg 80%
    16:00 -3°C° 0 mm 6 mps 748 mmHg 81%
    17:00 -3°C° 0 mm 6 mps 747 mmHg 79%
    18:00 -3°C° 0 mm 7 mps 747 mmHg 78%
    19:00 -3°C° 0 mm 7 mps 746 mmHg 77%
    20:00 -3°C° 0 mm 7 mps 745 mmHg 76%
    21:00 -3°C° 0 mm 7 mps 745 mmHg 75%
    22:00 -4°C° 0 mm 8 mps 744 mmHg 74%
    23:00 -2°C° 0 mm 8 mps 743 mmHg 72%

    Day after tomorrow, 14 December, Thursday

    Time Temperature Precipitation Wind Pressure Humidity
    00:00 -2°C° 0 mm 8 mps 742 mmHg 70%
    01:00 -3°C° 0 mm 9 mps 741 mmHg 68%
    02:00 -3°C° 0 mm 9 mps 740 mmHg 70%
    03:00 -3°C° 0 mm 9 mps 739 mmHg 71%
    04:00 -2°C° 0 mm 8 mps 738 mmHg 73%
    05:00 -1°C° 0.1 mm 9 mps 737 mmHg 72%
    06:00 -1°C° 0.1 mm 9 mps 737 mmHg 70%
    07:00 -1°C° 0.1 mm 9 mps 736 mmHg 69%
    08:00 0°C° 0.3 mm 8 mps 736 mmHg 73%
    09:00 0°C° 0.3 mm 8 mps 735 mmHg 77%
    10:00 0°C° 0.3 mm 7 mps 735 mmHg 80%
    11:00 +2°C° 0.2 mm 7 mps 735 mmHg 81%
    12:00 +2°C° 0.2 mm 7 mps 735 mmHg 81%
    13:00 +2°C° 0.2 mm 6 mps 735 mmHg 82%
    14:00 +2°C° 0.4 mm 7 mps 735 mmHg 79%
    15:00 0°C° 0.4 mm 8 mps 736 mmHg 76%
    16:00 0°C° 0.4 mm 8 mps 736 mmHg 74%
    17:00 -1°C° 0 mm 8 mps 736 mmHg 74%
    18:00 -1°C° 0 mm 7 mps 737 mmHg 74%
    19:00 -2°C° 0 mm 6 mps 737 mmHg 75%
    20:00 -2°C° 0 mm 6 mps 738 mmHg 75%
    21:00 -2°C° 0 mm 7 mps 738 mmHg 74%
    22:00 -2°C° 0 mm 7 mps 738 mmHg 74%
    23:00 -3°C° 0 mm 6 mps 738 mmHg 73%

    15 December, Friday

    Time Temperature Precipitation Wind Pressure Humidity
    00:00 -3°C° 0 mm 6 mps 737 mmHg 72%
    01:00 -2°C° 0 mm 5 mps 737 mmHg 71%
    02:00 -2°C° 0 mm 5 mps 737 mmHg 72%
    03:00 -2°C° 0 mm 5 mps 736 mmHg 72%
    04:00 -2°C° 0 mm 5 mps 736 mmHg 73%
    05:00 -2°C° 0 mm 6 mps 735 mmHg 77%
    06:00 -2°C° 0 mm 6 mps 735 mmHg 82%
    07:00 -2°C° 0 mm 6 mps 734 mmHg 86%
    08:00 -1°C° 0.7 mm 6 mps 734 mmHg 87%
    09:00 0°C° 0.7 mm 5 mps 734 mmHg 88%
    10:00 0°C° 0.7 mm 5 mps 733 mmHg 89%
    11:00 -1°C° 1 mm 6 mps 734 mmHg 89%
    12:00 -1°C° 1 mm 7 mps 734 mmHg 89%
    13:00 -1°C° 1 mm 8 mps 735 mmHg 89%
    14:00 -1°C° 0.4 mm 7 mps 735 mmHg 88%
    15:00 -2°C° 0.4 mm 7 mps 736 mmHg 88%
    16:00 -2°C° 0.4 mm 6 mps 737 mmHg 88%
    17:00 -2°C° 0 mm 6 mps 737 mmHg 89%
    18:00 -1°C° 0 mm 5 mps 738 mmHg 89%
    19:00 -2°C° 0 mm 5 mps 739 mmHg 90%
    20:00 -2°C° 0 mm 4 mps 739 mmHg 91%
    21:00 -3°C° 0 mm 4 mps 739 mmHg 91%
    22:00 -3°C° 0 mm 4 mps 740 mmHg 92%
    23:00 -3°C° 0 mm 4 mps 740 mmHg 93%

    16 December, Saturday

    Time Temperature Precipitation Wind Pressure Humidity
    00:00 -4°C° 0 mm 3 mps 740 mmHg 94%
    01:00 -4°C° 0 mm 3 mps 740 mmHg 94%
    02:00 -4°C° 0 mm 3 mps 740 mmHg 94%
    03:00 -4°C° 0 mm 3 mps 740 mmHg 94%
    04:00 -2°C° 0 mm 3 mps 740 mmHg 94%
    05:00 -2°C° 0 mm 3 mps 740 mmHg 93%
    06:00 -2°C° 0 mm 3 mps 741 mmHg 93%
    07:00 -2°C° 0 mm 3 mps 741 mmHg 92%
    08:00 -1°C° 0 mm 3 mps 741 mmHg 91%
    09:00 -1°C° 0 mm 3 mps 741 mmHg 91%
    10:00 -1°C° 0 mm 3 mps 741 mmHg 90%
    11:00 0°C° 0.1 mm 3 mps 741 mmHg 91%
    12:00 0°C° 0.1 mm 3 mps 741 mmHg 92%
    13:00 0°C° 0.1 mm 3 mps 741 mmHg 93%
    14:00 0°C° 0.1 mm 3 mps 741 mmHg 94%
    15:00 0°C° 0.1 mm 3 mps 742 mmHg 94%
    16:00 -1°C° 0.1 mm 3 mps 742 mmHg 94%
    17:00 -1°C° 0 mm 3 mps 742 mmHg 94%
    18:00 -1°C° 0 mm 3 mps 743 mmHg 93%
    19:00 -2°C° 0 mm 4 mps 743 mmHg 92%
    20:00 -2°C° 0 mm 4 mps 743 mmHg 91%
    21:00 -2°C° 0 mm 5 mps 744 mmHg 90%
    22:00 -2°C° 0 mm 5 mps 744 mmHg 89%
    23:00 -2°C° 0 mm 5 mps 744 mmHg 89%

    17 December, Sunday

    Time Temperature Precipitation Wind Pressure Humidity
    00:00 -2°C° 0 mm 5 mps 745 mmHg 88%
    01:00 -2°C° 0 mm 5 mps 745 mmHg 88%
    02:00 -2°C° 0 mm 5 mps 745 mmHg 88%
    03:00 -2°C° 0 mm 5 mps 745 mmHg 88%
    04:00 -2°C° 0 mm 5 mps 746 mmHg 88%
    05:00 -2°C° 0 mm 5 mps 746 mmHg 89%
    06:00 -2°C° 0 mm 5 mps 746 mmHg 89%
    07:00 -2°C° 0 mm 5 mps 746 mmHg 90%
    08:00 -2°C° 0 mm 5 mps 747 mmHg 89%
    09:00 -2°C° 0 mm 5 mps 747 mmHg 88%
    10:00 -2°C° 0 mm 5 mps 748 mmHg 86%
    11:00 -2°C° 0 mm 5 mps 748 mmHg 86%
    12:00 -2°C° 0 mm 5 mps 748 mmHg 86%
    13:00 -2°C° 0 mm 5 mps 748 mmHg 86%
    14:00 -2°C° 0 mm 5 mps 749 mmHg 86%
    15:00 -2°C° 0 mm 5 mps 749 mmHg 86%
    16:00 -2°C° 0 mm 5 mps 749 mmHg 86%
    17:00 -2°C° 0 mm 5 mps 750 mmHg 86%
    18:00 -2°C° 0 mm 5 mps 750 mmHg 87%
    19:00 -2°C° 0 mm 5 mps 750 mmHg 87%
    20:00 -2°C° 0.1 mm 4 mps 750 mmHg 88%
    21:00 -2°C° 0.1 mm 4 mps 751 mmHg 88%
    22:00 -2°C° 0.1 mm 4 mps 751 mmHg 89%
    23:00 -2°C° 0 mm 4 mps 751 mmHg 90%
    Show more